Location: Anglesey
(53.1800°N, 4.2200°W)
Time: 12:46:42
(UTC+00:00)

Envisat - Pass Details

Date: 11 October 2017
Orbit: 764 x 766 km, 98.2° (Epoch: 18 December)

Event Time Altitude Azimuth Distance (km) Brightness Sun altitude
Exits shadow 22:10:19 17° 235° (SW) 1,881 5.2 -32.3°
Maximum altitude 22:12:36 22° 270° (W) 1,625 5.1 -32.6°
Drops below altitude 10° 22:16:33 10° 321° (NW) 2,317 6.3 -33.1°
Sets 22:19:23 0° 337° (NNW) 3,249 7.1 -33.4°
